Location: Caucaguita
(10.3578°N, 66.8025°W)
Time: 02:54:49
(UTC+00:00)

Ariane H10+ - Pass Details

Date: 18 November 2025
Orbit: 275 x 20790 km, 6.5° (Epoch: 08 December)

Event Time Altitude Azimuth Distance (km) Brightness Sun altitude
Rises 23:20:03 0° 255° (WSW) 8,893 9.6 -19.2°
Reaches altitude 10° 23:30:11 10° 246° (WSW) 4,958 7.8 -21.6°
Maximum altitude 23:38:30 25° 195° (SSW) 1,683 4.5 -23.6°
Enters shadow 23:40:20 19° 157° (SSE) 1,512 4.0 -24.0°
